SCP
0 0 0 0 0 0 0 0 0 0 0 0 0 0 0 0 0 0 0 0 0 0 0 0 0 0 0 0 0 0 0 0 0 0 0 0 0 0 0 1 1 1 1
0 0 0 0 0 0 0 0 0 0 0 0 0 0 0 0 0 0 0 0 0 0 0 0 0 0 0 0 0 0 0 0 0 0 0 0 0 0 0 1 1 1 1
0 0 0 0 0 0 0 0 0 0 0 0 0 0 0 0 0 0 0 0 0 0 0 0 0 0 0 0 0 0 0 0 0 0 0 0 0 0 0 1 1 1 1
0 0 0 0 0 0 0 0 0 0 0 0 0 0 0 0 0 0 0 0 0 0 0 0 0 0 0 0 0 0 0 0 0 0 0 0 0 0 0 0 1 1 1
0 0 0 0 0 0 0 0 0 0 0 0 0 0 0 0 0 0 0 0 0 0 0 0 0 0 0 0 0 0 0 0 0 0 0 0 0 0 0 0 1 1 1
0 0 0 0 0 0 0 0 0 0 0 0 0 0 0 0 0 0 0 0 0 0 0 0 0 0 0 0 0 0 0 0 0 0 0 0 0 0 0 0 1 1 1
0 0 0 0 0 0 0 0 0 0 0 0 0 0 0 0 0 0 0 0 0 0 0 0 0 0 0 0 0 0 0 0 0 0 0 0 0 0 0 0 1 1 1
0 0 0 0 0 0 0 0 0 0 0 0 0 0 0 0 0 0 0 0 0 0 0 0 0 0 0 0 0 0 0 0 0 0 0 0 0 0 0 0 0 1 1
0 0 0 0 0 0 0 0 0 0 0 0 0 0 0 0 0 0 0 0 0 0 0 0 0 0 0 0 0 0 0 0 0 0 0 0 0 0 0 0 0 0 1
0 0 0 0 0 0 0 0 0 0 0 0 0 0 0 0 0 0 0 0 0 0 0 0 0 0 0 0 0 0 0 0 0 0 0 0 0 0 0 0 0 0 0
0 0 0 0 0 0 0 0 0 0 0 0 0 0 0 0 0 0 0 0 0 0 0 0 0 0 0 0 0 0 0 0 0 0 0 0 0 0 0 0 0 0 0
0 0 0 0 0 0 0 0 0 0 0 0 0 0 0 0 0 0 0 0 0 0 0 0 0 0 0 0 0 0 0 0 0 0 0 0 0 0 0 0 0 0 0
0 0 0 0 0 0 0 0 0 0 0 0 0 0 0 0 0 0 0 0 0 0 0 0 0 0 0 0 0 0 0 0 0 0 0 0 0 0 0 0 0 0 0
0 0 0 0 0 0 0 0 0 0 0 0 0 0 0 0 0 0 0 0 0 0 0 0 0 0 0 0 0 0 0 0 0 0 0 0 0 0 0 0 0 0 0
0 0 0 0 0 0 0 0 0 0 0 0 0 0 0 0 0 0 0 0 0 0 0 0 0 0 0 0 0 0 0 0 0 0 0 0 0 0 0 0 0 0 1
0 0 0 0 0 0 0 0 0 0 0 0 0 0 0 0 0 0 0 0 0 0 0 0 0 0 0 0 0 0 0 0 0 0 0 0 0 0 0 0 0 1 1
0 0 0 0 0 0 0 0 0 0 0 0 0 0 0 0 0 0 0 0 0 0 0 0 0 0 0 0 0 0 0 0 0 0 0 0 0 0 0 0 0 0 0
0 0 0 0 0 0 0 0 0 0 0 0 0 0 0 0 0 0 0 0 0 0 0 0 0 0 0 0 0 0 0 0 0 0 0 0 0 0 0 0 0 0 0
0 0 0 0 0 0 0 0 0 0 0 0 0 0 0 0 0 0 0 0 0 0 0 0 0 0 0 0 0 0 0 0 0 0 0 0 0 0 0 0 0 0 0
0 0 0 0 0 0 0 0 0 0 0 0 0 0 0 0 0 0 0 0 0 0 0 0 0 0 0 0 0 0 0 0 0 0 0 0 0 0 0 0 0 0 0
0 0 0 0 0 0 0 0 0 0 0 0 0 0 0 0 0 0 0 0 0 0 0 0 0 0 0 0 0 0 0 0 0 0 0 0 0 0 0 0 0 0 0
0 0 0 0 0 0 0 0 0 0 0 0 0 0 0 0 0 0 0 0 0 0 0 0 0 0 0 0 0 0 0 0 0 0 0 0 0 0 0 0 0 0 0
0 0 0 0 0 0 0 0 0 0 0 0 0 0 0 0 0 0 0 0 0 0 0 0 0 0 0 0 0 0 0 0 0 0 0 0 0 0 0 0 0 0 0
0 0 0 0 0 0 0 0 0 0 0 0 0 0 0 0 0 0 0 0 0 0 0 0 0 0 0 0 0 0 0 0 0 0 0 0 0 0 0 0 0 0 0
0 0 0 0 0 0 0 0 0 0 0 0 0 0 0 0 0 0 0 0 0 0 0 0 0 0 0 0 0 0 0 0 0 0 0 0 0 0 0 0 0 0 0
0 0 0 0 0 0 0 0 0 0 0 0 0 0 0 0 0 0 0 0 0 0 0 0 0 0 0 0 0 0 0 0 0 0 0 0 0 0 0 0 0 0 0
Wind_Speed
6 6 6 7 8 8 8 9 8 8 8 9 9 9 10 10 9 9 10 10 10 10 9 9 9 9 9 9 9 9 10 10 11 9 6 4 4 6 5 4 4 4 6
6 6 7 7 8 9 9 9 8 9 9 10 10 10 11 11 10 10 11 11 11 11 11 10 10 9 10 10 9 10 10 9 11 12 9 7 6 5 5 5 3 3 4
6 7 7 8 9 9 9 9 9 9 10 10 10 11 11 11 11 11 11 11 11 12 11 11 11 11 11 10 10 10 10 10 10 11 11 8 6 5 5 4 3 2 2
6 7 8 9 9 9 9 9 10 10 10 10 11 11 11 11 11 12 11 11 11 12 12 12 12 12 12 11 10 11 11 11 10 11 11 9 8 7 6 5 4 4 3
6 8 8 8 9 9 9 10 10 10 11 11 11 11 11 11 10 10 10 11 11 12 12 12 13 12 11 10 10 10 10 10 10 10 10 10 9 7 7 6 6 4 4
7 8 8 8 9 9 9 10 10 10 10 11 11 11 11 10 4 4 9 13 13 13 13 12 12 13 14 15 16 16 15 13 12 11 10 10 9 9 7 6 6 6 5
7 8 8 8 9 9 10 10 10 10 11 11 11 11 12 11 7 8 10 12 14 13 13 12 12 11 11 13 16 20 20 20 18 14 14 12 10 9 9 9 8 7 6
7 7 8 8 9 9 9 10 10 10 10 10 10 11 11 11 8 9 10 13 14 14 14 14 13 13 12 11 13 13 14 15 17 16 15 14 13 11 9 10 9 8 5
7 7 7 8 9 9 10 10 10 10 10 10 10 11 12 12 9 9 10 11 12 14 14 14 13 13 10 8 12 14 14 13 13 14 13 13 11 10 8 9 9 8 6
7 6 6 7 8 9 10 10 9 9 10 11 11 11 12 13 9 8 10 10 11 11 11 12 12 14 10 7 12 13 15 14 13 13 14 15 16 16 14 13 12 10 7
6 6 7 7 8 9 9 9 9 10 10 11 12 11 12 12 11 10 11 10 10 10 10 9 8 8 11 11 12 13 13 12 12 13 13 13 14 14 15 15 14 12 10
6 6 7 7 8 7 9 9 10 10 11 11 11 11 10 9 9 8 10 12 12 11 10 10 7 3 7 10 12 12 12 11 12 11 12 12 12 13 13 14 15 14 11
6 7 7 8 8 8 9 10 10 9 9 9 9 10 10 8 6 9 11 12 13 11 10 10 10 8 9 11 16 15 13 12 12 12 13 13 12 12 11 11 13 13 13
8 8 7 8 8 8 8 9 9 8 8 8 9 9 10 9 8 6 5 7 11 12 11 10 13 15 14 14 11 12 12 12 12 12 12 12 11 11 12 11 12 11 11
8 8 8 8 8 8 8 8 9 9 8 9 10 10 10 10 7 5 7 9 8 6 7 8 9 9 9 10 10 9 10 11 12 12 12 12 11 12 12 11 11 11 12
9 9 8 7 6 7 8 9 10 12 11 13 15 15 12 13 14 12 11 12 12 9 7 10 10 9 9 9 9 9 9 10 11 11 12 12 12 12 12 11 11 12 12
10 9 7 7 7 7 8 8 9 8 13 17 18 17 17 16 15 14 13 12 11 9 9 11 11 10 9 9 8 8 8 9 9 10 11 12 12 12 11 11 12 12 12
12 10 9 8 8 8 8 8 8 9 10 8 9 15 16 16 16 14 11 8 9 10 11 11 10 10 9 8 7 7 7 8 8 9 10 11 12 11 11 12 12 14 13
11 9 8 8 8 8 8 8 8 10 10 9 9 7 9 12 13 12 9 8 9 9 9 9 9 9 8 8 7 7 7 7 8 8 9 11 11 11 12 12 12 14 13
10 11 9 8 8 8 8 8 8 9 9 9 9 9 7 7 7 5 6 7 8 9 8 8 8 8 7 7 6 6 6 7 8 8 8 9 10 10 12 14 13 13 12
10 9 11 9 9 8 8 8 8 8 8 9 9 7 6 9 9 8 7 6 8 9 8 8 8 8 7 6 6 7 8 7 7 7 7 8 9 9 10 11 12 12 12
8 8 8 8 7 7 7 7 8 8 9 10 9 7 6 8 8 7 7 7 7 7 7 7 7 7 7 6 5 6 6 7 6 6 7 7 8 9 9 10 11 11 11
8 8 7 6 6 6 7 8 8 8 8 8 8 8 7 7 7 7 8 7 7 7 6 7 7 7 7 6 5 6 6 6 6 6 6 7 7 7 8 9 12 12 12
7 7 6 5 5 6 6 7 7 8 8 8 8 7 7 7 8 8 8 7 7 7 6 6 7 9 10 7 6 6 6 5 6 6 8 7 7 7 8 9 10 12 12
6 5 4 4 4 5 6 7 7 7 7 7 7 7 7 8 8 8 7 7 8 8 8 7 7 8 9 9 8 6 3 4 4 4 7 8 8 8 8 10 10 11 12
4 3 3 3 4 5 6 6 6 7 7 7 7 7 7 7 7 7 7 7 8 7 8 7 8 9 9 8 7 4 4 4 4 4 5 7 8 7 8 8 12 11 13
Wind_Direction
251 255 265 266 266 264 263 269 274 278 281 276 276 278 277 276 273 266 267 273 263 264 264 260 259 270 275 275 266 262 261 261 265 268 261 250 268 286 292 281 253 223 194
258 261 264 268 268 268 269 271 274 274 275 276 277 277 277 277 275 271 269 269 265 261 260 261 260 257 254 263 269 268 266 269 269 271 269 258 245 257 274 278 263 230 201
262 264 268 270 269 268 274 277 276 275 276 279 278 277 278 278 275 271 269 268 266 264 262 259 258 257 257 258 260 263 263 258 256 262 262 258 250 242 247 249 240 225 198
270 271 274 276 277 276 275 276 275 276 278 279 280 280 280 278 275 273 271 269 268 266 263 260 257 254 252 255 256 256 261 266 262 259 261 255 245 232 231 232 221 200 188
271 276 279 281 281 279 278 276 276 277 277 279 281 280 278 276 271 276 280 278 275 270 265 259 256 254 258 260 265 262 256 252 255 251 252 251 246 235 230 223 219 196 183
267 277 286 288 287 285 284 281 278 277 279 281 280 280 280 278 293 289 278 282 278 273 269 265 259 244 237 234 247 261 270 268 264 264 258 253 252 250 243 236 220 203 197
266 276 284 287 289 290 290 288 285 284 282 280 281 280 279 279 266 248 252 271 273 270 269 266 263 257 238 240 230 231 242 249 256 267 270 270 265 254 257 245 230 224 214
266 276 284 288 290 293 291 289 289 287 287 285 283 282 280 278 259 243 246 262 265 264 262 260 261 265 260 257 258 247 240 235 230 234 248 260 266 277 272 263 258 237 226
265 277 287 292 293 293 291 291 291 289 287 285 283 281 280 279 260 237 241 271 264 264 262 260 260 262 257 243 257 260 257 251 240 237 246 256 273 287 289 274 251 228 215
267 279 287 287 288 290 291 292 290 287 284 285 284 283 281 279 269 237 232 264 267 268 265 262 251 248 261 238 252 255 254 251 252 238 227 237 246 248 242 248 255 238 218
261 270 275 280 281 282 286 285 284 283 285 287 287 283 278 274 269 245 230 255 270 273 273 271 268 213 223 231 242 254 257 264 255 249 246 238 231 231 231 225 229 241 228
245 259 269 274 278 283 282 281 280 281 281 281 281 282 277 268 258 251 225 234 261 272 272 273 278 224 229 236 239 248 247 251 252 248 243 240 236 229 223 224 220 224 234
236 249 261 269 270 273 275 276 274 270 273 280 283 285 286 285 266 228 228 232 235 251 268 282 290 279 262 249 239 236 233 234 238 239 239 238 237 235 231 221 222 221 226
236 248 255 261 264 265 267 269 272 276 277 278 281 282 286 286 283 280 259 236 225 237 253 260 245 244 246 257 252 225 226 231 230 234 237 238 238 233 227 224 216 207 207
233 244 252 257 263 273 268 267 274 277 283 287 290 290 287 287 303 342 308 295 292 299 301 278 269 260 247 240 237 235 229 225 226 232 234 235 233 231 226 220 218 207 203
232 239 246 253 259 266 272 271 240 238 250 247 251 262 278 277 285 286 276 265 262 263 265 263 264 262 259 255 249 239 231 228 227 227 228 229 228 225 223 218 212 209 204
235 243 250 257 261 264 270 277 285 261 231 235 243 245 247 264 273 275 273 268 255 234 242 254 259 259 258 256 253 249 241 232 226 224 224 224 222 222 220 216 211 206 204
238 238 239 253 260 267 272 276 280 289 293 285 253 235 236 244 254 260 261 257 250 224 239 252 257 256 253 250 246 246 244 236 226 222 222 222 220 218 217 214 210 205 200
240 241 237 248 258 264 269 273 277 281 283 288 293 278 232 234 239 244 232 241 261 263 257 258 262 260 251 246 242 238 237 234 230 224 222 220 219 216 216 214 208 201 199
242 239 241 251 259 262 264 270 277 280 283 287 289 293 296 284 278 262 233 244 257 264 266 266 267 266 258 249 240 232 228 227 229 224 221 219 217 217 216 213 206 197 196
256 236 211 233 248 259 269 276 281 283 286 289 290 295 302 295 292 291 283 268 265 267 265 265 268 268 259 245 241 231 224 222 223 225 220 216 214 213 213 211 207 199 195
264 259 244 241 249 257 272 279 281 283 285 288 291 288 258 270 284 288 287 282 277 274 271 267 264 263 260 250 238 234 226 218 218 219 220 216 211 211 208 206 202 197 193
265 260 256 251 255 256 259 269 280 286 288 291 295 300 302 299 298 296 297 296 294 286 277 270 266 264 260 249 240 236 232 220 214 217 219 217 214 209 205 204 199 191 190
270 260 258 258 260 270 276 283 287 292 298 299 299 303 304 302 303 308 308 302 297 291 286 280 272 267 264 258 244 237 228 221 213 211 216 218 213 211 204 200 197 192 187
282 266 263 266 271 277 284 291 298 303 305 303 305 307 304 304 309 312 313 308 302 298 295 287 279 274 266 258 249 242 193 183 218 231 208 214 213 210 206 197 190 185 179
305 297 292 289 284 286 294 301 305 310 308 307 308 308 309 311 312 315 314 312 312 306 298 289 282 281 275 260 251 224 181 194 211 247 244 218 213 209 202 194 185 180 175